MOZ.5/SAFIR/RUBIN 5/SL-8

Satellite information

Favourite Embed

Satellite Type and Status

PAYLOADIN ORBIT

Key statistics

Satellite MOZ.5/SAFIR/RUBIN 5/SL-8 at a glance.

Uptime

7352

Days in orbit

Revolutions

≈ 14.6

Per day

Orbit

SSO

Sun Synchronous Orbit

Inclination

98.3

Latest

Satellite identification and parameters

Extended collection of information and parameters for MOZ.5/SAFIR/RUBIN 5/SL-8.

Object identification

Identified? True

Debris? False

Object name: MOZ.5/SAFIR/RUBIN 5/SL-8

International designator: 2005-043G

Object number (NORAD): 28898

Object ID (CCSDS): 28898

Country: GERMANY (GER)

Current information (Y/N): Y

RCS size: LARGE

Orbital parameters

Period: 98.355 minutes

Inclination: 98.3258 deg

SMA: 7058.154 km

Apoapsis: 692.749 km

Periapsis: 667.288 km

RAAN: 123.3694 deg

Eccentricy: 0.00180365

Argument of periapsis: 201.9857 deg

Mean anomaly: 158.0573 deg

Mean motion: 14.64084304 rev/day

Mean motion (dot): 0.00001319 rev/day2

B* drag term: 0.00026013473 1/REarth

Two-line elements (TLE)

Creation date: Dec. 12, 2025, 10:14 a.m.

Reference frame: TEME

Reference center: EARTH

Epoch: Dec. 12, 2025, 6:47 a.m. UTC

TLE line 0: 0 MOZ.5/SAFIR/RUBIN 5/SL-8

TLE line 1: 1 28898U 05043G 25346.28277113 .00001319 00000-0 26013-3 0 9997

TLE line 2: 2 28898 98.3258 123.3694 0018037 201.9857 158.0573 14.64084304695903

Live tracking on map

Real-time ground track for satellite MOZ.5/SAFIR/RUBIN 5/SL-8.

In-orbit conjunctions

A list of the most updated potential collisions computed for object MOZ.5/SAFIR/RUBIN 5/SL-8.

Target Orbit TCA Probability of collision Miss distance Type
CZ-6A DEB LEO 2025-11-02 10:10:09 0.0002250162 608.0 (m) DEBRIS
IRIDIUM 33 DEB LEO 2025-05-16 11:39:36 0.0001446681 509.0 (m) DEBRIS
CZ-6A DEB LEO 2024-12-19 21:45:54 0.0002633657 740.0 (m) DEBRIS
THOR ABLESTAR DEB LEO 2024-11-10 22:25:30 0.0002554824 57.0 (m) DEBRIS

Associated space launch

Civilian surveillance satellite.

MOZ.5/SAFIR/RUBIN 5/SL-8 was lifted into orbit during the mission ‘Kosmos-3M | Beijing-1’, on board a Kosmos-3M space rocket.

The launch took place on Oct. 27, 2005, 6:52 a.m. from 132/1 (132L).

For more information about the launch, click the button.

Launch to space Kosmos-3M | Beijing-1
Kosmos-3M | Beijing-1

Agency: N/A

Status: Launch Successful

Launch date: Oct. 27, 2005, 6:52 a.m. UTC

Rocket: Kosmos-3M

Launch pad: 132/1 (132L)

Location: Plesetsk Cosmodrome, Russian Federation

...

Latest news about this satellite

There are no fresh news available about this satellite. Check back as we update our databases every day.


Newsletter sign-up

Weekly statistics, charts and insights to help you stay on top of the space industry.